Frederick, OK

7:27 AM CST on February 24, 2017 (GMT -0600)
Frederick Municipal

Weather History for KFDR - December, 2012

Change the Weather History Date:

Tuesday, December 4, 2012

  Actual Average (KLTS) Record (KLTS)
Temperature  
Mean Temperature 57 °F -  
Max Temperature 68 °F 54 °F 72 °F (2007)
Min Temperature 43 °F 32 °F 19 °F (2006)
Degree Days  
Heating Degree Days 8    
Growing Degree Days 7 (Base 50)    
Moisture  
Dew Point 25 °F    
Average Humidity 36    
Maximum Humidity 61    
Minimum Humidity 14    
Precipitation  
Precipitation 0.00 in - - ()
Sea Level Pressure  
Sea Level Pressure 30.20 in    
Wind  
Wind Speed 14 mph (North)    
Max Wind Speed 20 mph    
Max Gust Speed 23 mph    
Visibility 10 miles    
Events      
Averages and records for this station are not official NWS values.
T = Trace of Precipitation, MM = Missing Value Source: NWS Daily Summary

Daily Weather History Graph

Daily Weather History Graph

Search for Another Location

Airport or City:

Trip Planner

Search our weather history database for the weather conditions in past years. The results will help you decide how hot, cold, wet, or windy it might be!

Date:

Astronomy

Dec. 04, 2012 Rise Set
Actual Time 7:27 AM CST 5:25 PM CST
Civil Twilight 6:59 AM CST 5:53 PM CST
Nautical Twilight 6:28 AM CST 6:24 PM CST
Astronomical Twilight 5:57 AM CST 6:54 PM CST
Moon 11:04 PM CST (12/4) 11:30 AM CST (12/4)
Length of Visible Light 10h 53m
Length of Day
9h 58m
Waning Gibbous, 69% of the Moon is Illuminated
Dec 4
Waning Gibbous
Dec 6
Last Quarter
Dec 13
New
Dec 19
First Quarter
Dec 28
Full

Hourly Weather History & Observations

Time (CST) Temp. Windchill Dew Point Humidity Pressure Visibility Wind Dir Wind Speed Gust Speed Precip Events Conditions
12:53 AM 55.0 °F - 39.0 °F 55% 29.99 in 10.0 mi North 16.1 mph - N/A   Clear
1:53 AM 54.0 °F - 37.9 °F 55% 30.00 in 10.0 mi North 15.0 mph - N/A   Clear
2:53 AM 54.0 °F - 37.9 °F 55% 30.01 in 10.0 mi North 17.3 mph - N/A   Clear
3:53 AM 53.1 °F - 37.0 °F 55% 30.05 in 10.0 mi North 19.6 mph - N/A   Clear
5:53 AM 48.9 °F - 35.1 °F 59% 30.10 in 10.0 mi North 11.5 mph - N/A   Clear
6:53 AM 46.9 °F - 34.0 °F 61% 30.15 in 10.0 mi North 12.7 mph - N/A   Clear
7:53 AM 46.9 °F - 33.1 °F 59% 30.19 in 10.0 mi North 9.2 mph - N/A   Clear
8:53 AM 54.0 °F - 33.1 °F 45% 30.23 in 10.0 mi NNW 11.5 mph - N/A   Clear
9:53 AM 57.9 °F - 33.1 °F 39% 30.26 in 10.0 mi North 13.8 mph - N/A   Clear
10:53 AM 62.1 °F - 28.9 °F 29% 30.27 in 10.0 mi NNE 11.5 mph 17.3 mph N/A   Clear
11:53 AM 64.9 °F - 26.1 °F 23% 30.26 in 10.0 mi North 13.8 mph - N/A   Clear
12:53 PM 66.0 °F - 21.9 °F 19% 30.25 in 10.0 mi North 15.0 mph - N/A   Clear
1:53 PM 68.0 °F - 19.0 °F 15% 30.23 in 10.0 mi North 13.8 mph - N/A   Clear
2:53 PM 68.0 °F - 16.0 °F 14% 30.22 in 10.0 mi North 17.3 mph 23.0 mph N/A   Clear
3:53 PM 66.9 °F - 15.1 °F 14% 30.23 in 10.0 mi North 15.0 mph - N/A   Clear
4:53 PM 62.1 °F - 14.0 °F 15% 30.23 in 10.0 mi North 11.5 mph - N/A   Clear
5:53 PM 54.0 °F - 16.0 °F 22% 30.25 in 10.0 mi NNW 9.2 mph - N/A   Clear
6:53 PM 50.0 °F - 16.0 °F 26% 30.26 in 10.0 mi North 11.5 mph - N/A   Clear
7:53 PM 46.9 °F - 17.1 °F 30% 30.27 in 10.0 mi North 10.4 mph - N/A   Clear
8:53 PM 46.9 °F - 18.0 °F 32% 30.27 in 10.0 mi North - - N/A   Clear
9:53 PM 46.9 °F - 19.0 °F 33% 30.27 in 10.0 mi North 11.5 mph - N/A   Clear
10:53 PM 46.0 °F 41.4 °F 19.9 °F 35% 30.27 in 10.0 mi NNE 9.2 mph - N/A   Clear
11:53 PM 43.0 °F 39.5 °F 19.0 °F 38% 30.28 in 10.0 mi NNE 5.8 mph - N/A   Clear